Location: Cheadle
(51.0146°N, 113.5417°W)
Time: 15:45:39
(UTC+00:00)

BlueWalker 3 - Pass Details

Date: 20 April 2024
Orbit: 482 x 494 km, 53.2° (Epoch: 19 May)

Event Time Altitude Azimuth Distance (km) Brightness Sun altitude
Rises 05:37:05 0° 266° (W) 2,579 5.9 -22.4°
Reaches altitude 10° 05:39:17 10° 269° (W) 1,699 5.0 -22.6°
Maximum altitude 05:43:06 65° 352° (N) 554 2.2 -22.9°
Enters shadow 05:43:33 58° 31° (NNE) 585 2.3 -22.9°
